Terminal Aerodrome Forecast
Issued by NWS Austin/San Antonio, TX

Home | Current Version | Previous Version | Text Only | Print | Product List | Glossary On
Versions: 1 2 3 4 5 6 7 8 9 10 11 12 13 14 15 16 17 18 19 20 21 22 23 24 25 26 27 28 29 30 31 32 33 34 35 36 37 38 39 40 41 42 43 44
476
FTUS44 KEWX 211616 AAA
TAFAUS
TAF AMD
KAUS 211616Z 2116/2218 17011KT 6SM BR OVC015
      TEMPO 2121/2124 5SM -RA BR
     FM220000 21010KT P6SM BKN050
     FM220700 28010KT P6SM SKC=

USA.gov is the U.S. government's official web portal to all federal, state and local government web resources and services.